Regional Weather Roundup
Issued by NWS Midland/Odessa, TX

Current Version | Previous Version | Text Only | Print | Product List | Glossary On
Versions: 1 2 3 4 5 6 7 8 9 10 11 12 13 14 15 16 17 18 19 20 21 22 23 24 25 26 27 28 29 30 31 32 33 34 35 36 37 38 39 40 41 42 43 44 45 46 47 48 49 50
000
ASUS44 KMAF 180610
RWRMAF
MIDLAND AREA WEATHER ROUNDUP
NATIONAL WEATHER SERVICE MIDLAND TX
1200 AM CST THU DEC 18 2014

...IN SOUTHWEST TEXAS AND SOUTHEAST NEW MEXICO...

CITY           SKY/WX    TMP DP  RH WIND       PRES   REMARKS
ALPINE         CLEAR     38  27  64 S3        30.20S
ANDREWS        FAIR      47  29  49 W9        30.07S
ARTESIA        CLEAR     43  32  65 N8        30.07R WCI  38
BIG SPRING     CLEAR     45  42  89 S7        30.09S
CARLSBAD       CLEAR     50  32  50 W8        30.06S
DRYDEN           N/A     50  47  89 W3        30.10R
FORT STOCKTON  CLEAR     46  29  51 SW10      30.11R
GUAD PASS      NOT AVBL
HOBBS          CLEAR     45  30  57 SW9       30.07S WCI  40
MARFA          CLEAR     32  21  64 N6        30.17S WCI  26
MIDLAND AIRPK  CLEAR     49  42  76 SW7       30.08S
MIDLAND INTL   CLEAR     47  42  83 SW9       30.07S
ODESSA         CLEAR     46  39  76 SW5       30.08S
PECOS          CLEAR     40  27  59 SW6       30.10S WCI  36
PRESIDIO       FAIR      51  29  43 N5        30.09R
SEMINOLE       CLEAR     40  30  68 SW6       30.07S WCI  36
SNYDER         FOG       42  42  98 S6        30.06S VSB 1   WCI  38
WINK           CLEAR     45  27  49 SW3       30.08R
$$
...OTHER STATIONS IN TEXAS...

CITY           SKY/WX    TMP DP  RH WIND       PRES   REMARKS
ABILENE        CLOUDY    51  48  89 S6        30.07F
AMARILLO       FOG       37  37 100 S15       30.01F VSB 3/4 WCI  28
AUSTIN         DRIZZLE   52  49  89 N10       30.12S
BROWNSVILLE    CLOUDY    72  69  90 S10       30.04F
CORPUS CHRISTI CLOUDY    69  66  90 SE7       30.06S
DALLAS FTW     DRIZZLE   41  40  96 E9        30.15F FOG     WCI  35
DEL RIO        CLOUDY    54  50  86 CALM      30.08F
EL PASO        MOCLDY    43  34  70 SE7       30.14R WCI  39
HOUSTON INT    CLOUDY    57  54  89 E5        30.12S
LUBBOCK        CLEAR     37  36  96 S8        30.03S WCI  31
SAN ANGELO     CLOUDY    50  48  93 SW7       30.09S
SAN ANTONIO    CLOUDY    58  55  90 N6        30.09F FOG
WACO           CLOUDY    46  44  93 N5        30.16S
WICHITA FALLS  NOT AVBL
$$
...OTHER LOCATIONS IN NEW MEXICO...

CITY           SKY/WX    TMP DP  RH WIND       PRES   REMARKS
ALAMAGORDO     CLOUDY    46  32  57 SE8       30.13R
ALBUQUERQUE    PTCLDY    36  32  85 S6        30.12R WCI  31
CANNON AFB     PTCLDY    41  33  73 W13       30.01S WCI  34
CLOVIS         PTCLDY    36  27  69 SW10      30.01S WCI  28
HOLLOMAN AFB   MOCLDY    47  32  55 S5        30.11R
ROSWELL        CLEAR     43  32  65 NW7       30.06S WCI  39
RUIDOSO        PTCLDY    34  27  75 SW14      30.12S WCI  24
SANTA FE       MOCLDY    31  30  96 CALM      30.06S FOG
TRUTH OR CONSE PTCLDY    39  27  62 CALM      30.11R
TUCUMCARI      CLEAR     42  32  67 W10       29.98R WCI  36
$$



USA.gov is the U.S. government's official web portal to all federal, state and local government web resources and services.